Wind_Speed
15 11 15 18 18 18 20 18 15 15 18 18 16 15 14 17 16 16 20 20 19 18 17 15 13 12 10 7 8 13 21 13 23 24 24 25 30 29 32 39 30 36 35 40
13 15 16 18 18 19 20 20 14 16 14 8 9 12 14 15 19 20 20 20 20 19 18 18 13 15 12 11 9 9 14 18 20 22 27 25 26 26 30 29 34 33 36 41
16 18 20 16 15 15 11 14 13 18 16 15 16 17 16 20 21 24 22 22 21 23 20 17 21 17 15 12 7 9 10 7 15 22 21 24 28 27 26 30 32 35 38 40
15 19 12 9 13 15 15 16 17 17 15 13 12 14 17 21 20 19 22 20 19 22 16 16 14 13 10 11 14 10 8 10 10 11 20 25 24 28 33 29 28 37 36 37
15 16 13 16 16 15 16 16 16 16 13 16 19 13 16 16 14 16 17 25 22 18 21 22 19 20 9 3 5 12 16 12 8 12 17 19 24 28 27 28 33 29 36 40
17 24 13 9 13 14 13 15 15 13 11 14 18 17 17 16 18 18 16 23 17 16 16 9 8 2 3 5 6 8 9 12 14 14 13 18 22 26 28 30 29 32 38 36
16 20 14 12 11 13 15 13 10 12 13 14 20 16 15 16 19 19 11 12 9 12 9 5 5 2 3 5 8 7 9 10 14 16 16 16 17 21 24 30 36 38 33 34
12 13 15 15 16 13 13 12 12 16 14 15 14 16 4 12 7 7 8 18 14 9 7 6 3 3 6 7 6 9 15 16 16 18 19 20 22 22 23 23 24 28 35 48
14 20 15 15 18 15 18 17 16 16 18 16 17 23 12 8 12 11 15 11 11 12 6 2 3 4 6 12 12 13 15 19 17 14 18 20 21 20 23 24 28 31 30 36
8 10 8 13 11 18 16 9 9 9 17 21 15 18 10 10 5 12 8 2 11 11 8 4 6 9 13 15 16 15 13 13 11 16 16 16 18 21 18 22 23 26 28 38
9 7 11 16 15 15 13 13 12 12 13 4 6 6 7 9 12 7 2 3 5 1 6 7 9 13 16 20 17 13 11 13 14 21 13 16 10 15 19 25 26 26 26 31
5 5 10 17 18 16 18 20 17 9 14 12 13 15 12 1 10 14 14 8 6 11 10 12 12 11 14 14 13 13 12 13 11 17 19 17 18 16 20 20 25 27 27 26
3 3 8 11 15 22 14 13 14 12 17 20 13 9 10 12 14 13 17 17 16 14 11 13 12 11 15 15 15 13 12 13 16 17 15 18 21 20 17 15 18 27 30 29
2 7 14 12 16 10 8 11 16 8 5 10 17 20 15 6 6 8 17 22 19 16 14 10 11 12 15 17 17 16 17 18 19 19 19 21 24 23 24 27 18 16 26 31
3 8 15 19 23 23 24 20 18 18 15 11 14 17 14 12 11 21 27 21 17 13 11 10 16 19 19 17 17 17 19 20 23 24 23 25 27 27 28 26 27 30 26 28
3 5 13 18 17 21 23 22 20 21 21 23 22 24 18 18 15 7 5 9 12 11 15 18 22 20 16 15 17 20 23 23 21 25 25 27 28 29 30 30 31 28 32 29
2 3 5 10 15 15 15 17 18 18 20 15 17 17 11 6 2 6 9 14 18 17 16 21 18 16 17 19 19 20 22 22 23 26 30 34 32 32 32 30 31 31 30 33
5 6 3 5 10 8 6 8 7 6 6 6 7 9 6 7 4 9 11 17 18 14 14 17 20 24 27 28 27 25 26 28 30 30 29 29 29 31 34 33 33 31 31 32
11 7 4 3 7 13 14 4 3 5 7 8 7 8 13 15 15 13 10 13 15 18 20 22 24 27 29 30 30 31 28 26 28 30 33 35 36 36 36 30 33 33 29 33
17 14 7 3 4 4 3 6 6 8 7 9 11 7 8 16 11 10 28 22 22 23 24 26 30 32 33 32 30 31 29 31 32 31 34 33 34 40 45 43 34 26 35 27
3 5 12 9 6 8 3 2 3 7 3 9 12 14 16 11 13 24 26 28 28 28 28 30 32 34 34 33 31 31 31 30 31 34 34 38 36 36 41 35 42 38 26 33
6 3 4 6 5 7 11 5 3 2 5 9 11 14 18 21 24 25 27 28 30 30 32 33 36 34 35 32 29 28 29 31 34 35 41 37 35 37 36 37 34 36 34 34
3 2 1 2 3 1 5 13 3 5 8 11 13 17 19 23 26 29 30 30 30 33 35 34 33 29 29 33 32 36 37 38 39 36 33 35 39 37 36 40 41 32 35 39
2 8 4 8 2 2 2 12 6 14 17 17 17 20 23 27 29 31 31 32 33 33 31 30 32 35 40 42 43 41 38 37 39 33 33 32 36 38 37 39 39 40 43 41
9 10 10 13 6 6 8 9 16 14 15 19 23 24 24 27 29 30 32 31 32 32 31 34 42 44 41 39 37 36 34 34 36 35 37 36 32 35 36 36 36 36 37 36
3 4 3 4 8 7 14 20 17 20 21 23 22 25 26 26 29 30 32 31 30 34 44 42 39 39 39 38 37 37 33 31 32 32 34 35 34 31 33 31 31 36 38 38
Wind_Direction
205 219 211 220 226 240 259 242 278 225 243 199 217 249 253 241 217 216 228 221 251 243 234 231 224 212 216 262 256 242 233 216 220 217 225 233 229 238 237 225 233 227 236 242
232 227 238 228 238 228 250 272 270 287 298 276 236 240 249 256 265 228 225 220 222 236 238 233 224 223 230 233 240 254 239 230 229 226 229 232 245 246 241 244 231 233 232 240
231 231 209 248 245 248 262 274 261 261 272 256 253 256 264 261 247 246 238 235 218 230 224 216 229 234 226 217 248 257 262 254 236 231 236 240 237 241 239 240 238 239 235 236
253 245 263 226 257 270 240 245 247 267 268 262 236 254 243 230 230 233 236 222 232 233 232 243 237 247 223 247 263 256 260 263 261 268 240 233 247 246 242 240 244 238 245 246
262 242 253 262 250 247 250 253 259 241 246 266 262 268 271 286 268 223 218 216 215 229 230 224 213 211 195 190 273 275 275 276 274 274 254 247 251 257 254 252 246 249 244 253
276 280 311 294 274 235 266 253 263 271 264 257 253 256 260 259 249 228 226 199 198 223 217 176 114 103 333 294 288 308 296 296 300 296 287 281 267 252 248 246 249 251 253 260
264 267 252 264 271 273 226 241 254 246 239 249 244 242 243 251 247 243 174 173 160 113 90 82 89 75 344 321 283 307 314 312 305 301 296 292 284 279 272 260 256 253 251 249
267 267 253 218 237 253 263 228 241 251 258 267 267 249 302 350 2 114 105 112 114 119 107 79 59 334 306 291 309 290 281 293 290 294 295 290 287 279 271 274 275 270 265 253
283 256 259 269 283 238 247 263 280 293 297 291 285 281 254 258 226 212 187 167 156 136 138 150 255 287 283 283 292 283 292 293 274 282 291 291 300 300 295 281 264 257 259 265
276 309 304 291 283 271 264 253 239 261 265 267 265 268 282 26 54 345 343 237 134 152 162 223 294 309 303 292 285 282 298 315 302 292 282 292 283 284 286 278 278 285 275 262
285 269 272 297 284 264 266 252 250 241 258 253 281 280 21 3 13 9 7 296 89 340 271 308 317 303 296 287 291 280 288 307 301 311 295 317 288 282 284 285 276 266 264 273
20 312 278 278 279 262 250 265 256 245 253 255 264 271 57 358 311 9 355 281 296 290 294 299 291 294 326 324 320 301 302 307 315 307 305 294 317 297 302 297 285 273 267 262
30 238 287 277 249 234 251 305 286 265 244 243 243 246 108 36 340 349 328 304 297 314 300 288 292 298 300 306 314 307 304 302 297 293 300 298 294 294 291 296 288 283 272 256
352 265 258 263 282 295 249 283 295 276 250 267 261 281 277 66 275 307 292 288 283 275 283 300 312 292 289 287 286 292 295 293 295 297 292 293 287 292 278 276 274 286 283 281
258 267 274 272 273 273 277 268 251 249 253 249 269 272 267 271 196 236 237 244 259 278 292 295 291 284 284 271 267 268 272 278 276 285 286 287 288 283 291 284 293 277 270 289
166 276 284 280 269 259 261 263 266 265 259 259 268 272 288 283 278 304 293 271 269 275 275 276 268 265 283 294 277 271 269 269 269 278 287 281 283 284 280 284 285 293 271 267
215 290 295 270 264 266 259 253 256 259 256 254 263 276 274 248 62 273 282 283 287 290 288 290 294 318 306 296 290 289 285 290 291 284 282 278 281 280 279 278 284 277 284 268
212 227 249 273 290 259 281 316 259 285 299 317 276 310 104 268 241 256 293 287 286 310 326 320 309 303 297 290 281 282 288 287 286 285 282 280 286 283 281 277 273 283 273 280
198 230 267 261 274 288 280 205 33 37 310 22 31 34 340 333 319 292 15 359 329 314 309 306 303 300 297 296 292 286 279 276 276 278 282 282 281 288 283 295 271 264 275 270
196 216 235 289 280 282 92 68 6 324 261 31 1 350 322 326 308 303 341 331 317 311 308 306 300 295 290 287 290 291 284 277 271 276 276 276 278 273 274 275 278 283 261 269
196 212 220 237 243 260 127 283 300 243 22 340 322 325 326 318 314 315 312 310 310 306 306 305 301 294 290 290 285 280 282 284 283 279 274 278 272 275 275 278 270 269 272 270
194 221 215 226 238 248 2 304 335 7 314 307 323 326 319 313 308 307 307 309 307 308 306 303 298 299 302 299 295 297 292 289 287 280 281 274 272 273 271 270 271 264 270 259
276 251 305 265 307 313 306 296 292 304 295 329 323 322 316 312 310 310 307 308 310 308 301 300 305 310 309 304 300 298 295 293 287 282 276 272 272 270 266 263 262 264 262 258
283 215 227 232 161 276 199 285 349 334 351 347 338 331 323 315 311 310 313 311 304 304 313 318 317 312 308 303 298 295 295 293 289 278 278 273 273 268 263 262 259 258 258 258
291 266 307 291 328 309 96 337 355 337 334 331 326 322 318 315 312 312 307 313 318 317 316 315 312 307 302 300 298 297 296 295 286 283 280 278 272 274 267 264 261 256 253 248
350 294 341 322 355 335 331 344 339 337 333 327 329 325 318 315 314 322 321 319 320 314 311 309 305 302 301 301 300 298 298 294 286 280 278 274 277 271 269 266 263 261 261 258
Height
1449 1449 1447 1439 1436 1434 1428 1424 1427 1418 1416 1421 1430 1435 1431 1432 1434 1439 1443 1446 1448 1449 1452 1454 1457 1460 1461 1464 1467 1469 1470 1471 1473 1474 1475 1477 1479 1480 1482 1484 1487 1489 1489 1489
1443 1446 1434 1431 1429 1430 1430 1429 1431 1422 1417 1419 1423 1430 1430 1431 1430 1431 1435 1438 1443 1447 1449 1451 1454 1456 1459 1463 1465 1467 1468 1467 1468 1471 1472 1474 1475 1475 1477 1478 1480 1484 1485 1483
1439 1429 1427 1429 1427 1429 1432 1436 1436 1435 1424 1420 1427 1432 1431 1427 1425 1426 1429 1433 1436 1441 1444 1447 1451 1453 1456 1459 1462 1464 1465 1464 1465 1467 1468 1470 1471 1473 1472 1473 1473 1474 1477 1478
1433 1425 1426 1430 1433 1430 1439 1431 1432 1432 1433 1441 1423 1447 1424 1417 1417 1418 1422 1426 1431 1435 1439 1443 1446 1450 1453 1456 1460 1463 1463 1462 1463 1463 1463 1464 1465 1466 1466 1467 1468 1467 1467 1467
1432 1426 1428 1430 1427 1427 1432 1425 1425 1425 1433 1437 1432 1437 1422 1409 1410 1408 1411 1417 1424 1429 1434 1437 1441 1446 1450 1454 1457 1458 1460 1460 1459 1459 1459 1459 1459 1460 1461 1462 1463 1462 1459 1458
1430 1424 1423 1422 1421 1421 1423 1426 1426 1427 1434 1446 1434 1433 1424 1412 1403 1400 1402 1408 1418 1425 1429 1433 1438 1443 1448 1451 1453 1455 1456 1457 1456 1456 1456 1455 1455 1454 1454 1454 1454 1455 1455 1450
1434 1427 1424 1425 1430 1421 1424 1433 1448 1452 1447 1443 1419 1421 1410 1395 1391 1391 1396 1406 1414 1422 1427 1433 1437 1442 1446 1449 1452 1453 1454 1453 1452 1452 1452 1451 1450 1449 1448 1448 1447 1448 1446 1443
1447 1442 1421 1421 1427 1432 1427 1431 1443 1453 1440 1421 1399 1410 1405 1391 1391 1394 1400 1408 1416 1423 1428 1433 1437 1442 1445 1448 1449 1451 1452 1453 1451 1449 1448 1446 1444 1443 1442 1442 1441 1440 1439 1436
1437 1433 1420 1425 1424 1424 1431 1434 1428 1439 1431 1433 1421 1403 1393 1392 1393 1397 1402 1409 1416 1423 1430 1435 1439 1441 1444 1446 1447 1448 1448 1447 1445 1446 1445 1442 1440 1438 1436 1435 1433 1432 1431 1428
1430 1439 1426 1426 1425 1421 1422 1421 1442 1442 1458 1451 1426 1413 1408 1404 1406 1409 1406 1410 1418 1423 1430 1435 1438 1440 1442 1443 1443 1443 1443 1442 1442 1441 1439 1438 1434 1433 1431 1428 1426 1425 1423 1420
1437 1441 1440 1435 1433 1432 1426 1427 1428 1436 1438 1461 1446 1424 1414 1416 1415 1413 1416 1417 1422 1427 1432 1434 1436 1438 1440 1439 1438 1437 1437 1437 1436 1436 1433 1434 1429 1427 1426 1423 1421 1419 1416 1414
1438 1440 1442 1435 1425 1422 1427 1427 1427 1446 1444 1431 1436 1428 1416 1420 1423 1423 1429 1428 1430 1433 1433 1433 1434 1435 1435 1434 1433 1433 1433 1434 1433 1432 1431 1430 1427 1424 1423 1420 1417 1414 1411 1408
1446 1447 1449 1434 1422 1419 1424 1427 1421 1423 1430 1430 1443 1432 1420 1426 1431 1433 1432 1430 1430 1429 1429 1430 1431 1431 1432 1432 1433 1432 1430 1430 1430 1429 1428 1427 1424 1422 1420 1417 1413 1410 1406 1403
1454 1448 1449 1448 1433 1434 1444 1449 1444 1446 1447 1440 1425 1421 1416 1429 1437 1433 1436 1434 1429 1429 1427 1427 1428 1429 1430 1430 1429 1428 1427 1426 1426 1425 1423 1422 1421 1418 1416 1413 1409 1406 1404 1399
1454 1451 1446 1440 1436 1432 1428 1426 1429 1430 1430 1436 1425 1421 1417 1418 1428 1431 1427 1426 1425 1425 1424 1425 1427 1427 1426 1424 1423 1423 1423 1421 1421 1420 1418 1418 1416 1413 1410 1406 1404 1401 1398 1396
1456 1454 1446 1440 1432 1428 1423 1418 1417 1415 1413 1412 1414 1412 1412 1414 1416 1421 1421 1422 1422 1423 1423 1422 1421 1420 1419 1419 1418 1418 1417 1416 1415 1414 1413 1412 1410 1408 1406 1402 1396 1395 1392 1391
1460 1459 1452 1441 1427 1428 1424 1413 1409 1407 1403 1407 1414 1410 1408 1417 1419 1421 1420 1420 1417 1416 1416 1416 1415 1415 1415 1414 1413 1412 1412 1410 1409 1407 1406 1405 1404 1402 1399 1396 1392 1387 1387 1385
1456 1459 1460 1443 1428 1433 1407 1400 1402 1405 1404 1405 1409 1408 1413 1415 1416 1417 1417 1416 1414 1414 1414 1413 1413 1412 1411 1410 1408 1405 1404 1402 1401 1399 1398 1398 1397 1394 1392 1388 1386 1383 1381 1378
1453 1457 1453 1440 1428 1416 1408 1406 1411 1423 1412 1412 1414 1419 1423 1415 1415 1414 1413 1413 1414 1414 1413 1411 1410 1408 1405 1403 1401 1397 1394 1394 1393 1392 1391 1389 1387 1384 1381 1380 1378 1377 1376 1372
1444 1452 1453 1441 1437 1427 1416 1413 1414 1412 1415 1419 1419 1418 1419 1417 1415 1409 1409 1412 1412 1411 1409 1407 1405 1402 1399 1396 1394 1390 1386 1383 1383 1382 1381 1379 1377 1375 1373 1372 1370 1368 1368 1367
1441 1445 1444 1444 1441 1425 1415 1417 1415 1421 1427 1423 1421 1419 1418 1418 1417 1414 1412 1410 1408 1406 1404 1401 1398 1394 1390 1386 1382 1378 1375 1374 1373 1372 1370 1368 1366 1363 1363 1361 1360 1362 1360 1359
1435 1436 1431 1430 1431 1427 1422 1417 1419 1423 1421 1420 1418 1419 1417 1416 1414 1412 1409 1406 1404 1400 1397 1394 1389 1385 1381 1378 1372 1368 1365 1364 1362 1361 1357 1356 1353 1351 1350 1351 1350 1351 1351 1351
1434 1431 1437 1439 1425 1423 1422 1422 1420 1420 1418 1417 1417 1416 1416 1414 1412 1409 1405 1402 1398 1395 1390 1386 1380 1375 1372 1367 1364 1359 1356 1355 1351 1347 1343 1342 1341 1340 1338 1338 1338 1339 1340 1339
1431 1430 1430 1426 1421 1421 1422 1424 1422 1420 1417 1417 1415 1414 1413 1411 1408 1404 1400 1396 1392 1387 1382 1376 1371 1367 1362 1358 1354 1351 1345 1342 1337 1334 1331 1329 1327 1326 1326 1326 1326 1326 1327 1328
1423 1423 1419 1418 1414 1418 1422 1425 1424 1419 1417 1416 1414 1412 1410 1407 1403 1399 1394 1390 1385 1380 1375 1370 1365 1359 1351 1346 1342 1339 1335 1332 1327 1324 1320 1318 1315 1314 1313 1313 1313 1314 1314 1316
1424 1425 1426 1423 1424 1425 1422 1420 1418 1417 1416 1414 1411 1409 1407 1404 1398 1394 1390 1386 1381 1375 1369 1362 1356 1349 1341 1336 1332 1328 1326 1322 1318 1313 1310 1307 1305 1305 1304 1303 1302 1302 1302 1304